• In Germany
  • List of Countries
  • For 7 days
  • Water Temperature
  • Satellite Maps
  • Weather Map
  • Weather Widgets
  • user-avatar
    Login

    Hourly Weather Prutz

    Today, 13 December, Wednesday

    Time Temperature Precipitation Wind Pressure Humidity
    00:00 -7°C° 0.2 mm 1 mps 629 mmHg 93%
    01:00 -8°C° 0 mm 1 mps 629 mmHg 95%
    02:00 -9°C° 0 mm 1 mps 628 mmHg 94%
    03:00 -10°C° 0 mm 1 mps 628 mmHg 93%
    04:00 -10°C° 0 mm 1 mps 628 mmHg 92%
    05:00 -11°C° 0 mm 1 mps 628 mmHg 89%
    06:00 -11°C° 0 mm 1 mps 628 mmHg 86%
    07:00 -11°C° 0 mm 1 mps 628 mmHg 83%
    08:00 -10°C° 0 mm 1 mps 628 mmHg 79%
    09:00 -8°C° 0 mm 1 mps 629 mmHg 76%
    10:00 -7°C° 0 mm 1 mps 629 mmHg 72%
    11:00 -6°C° 0 mm 2 mps 629 mmHg 71%
    12:00 -4°C° 0 mm 2 mps 629 mmHg 70%
    13:00 -3°C° 0 mm 2 mps 629 mmHg 68%
    14:00 -4°C° 0 mm 2 mps 628 mmHg 72%
    15:00 -5°C° 0 mm 3 mps 627 mmHg 76%
    16:00 -6°C° 0 mm 3 mps 627 mmHg 80%
    17:00 -7°C° 0 mm 3 mps 626 mmHg 80%
    18:00 -7°C° 0 mm 3 mps 626 mmHg 80%
    19:00 -7°C° 0 mm 3 mps 626 mmHg 79%
    20:00 -7°C° 0 mm 3 mps 625 mmHg 78%
    21:00 -7°C° 0 mm 3 mps 625 mmHg 76%
    22:00 -9°C° 0 mm 4 mps 624 mmHg 74%
    23:00 -8°C° 0.1 mm 4 mps 624 mmHg 75%

    Tomorrow, 14 December, Thursday

    Time Temperature Precipitation Wind Pressure Humidity
    00:00 -7°C° 0.1 mm 4 mps 624 mmHg 75%
    01:00 -5°C° 0.1 mm 4 mps 624 mmHg 76%
    02:00 -5°C° 0.2 mm 4 mps 623 mmHg 78%
    03:00 -5°C° 0.2 mm 4 mps 623 mmHg 80%
    04:00 -4°C° 0.2 mm 4 mps 623 mmHg 82%
    05:00 -4°C° 0.3 mm 3 mps 623 mmHg 84%
    06:00 -4°C° 0.3 mm 3 mps 623 mmHg 85%
    07:00 -5°C° 0.3 mm 3 mps 624 mmHg 86%
    08:00 -4°C° 0.4 mm 3 mps 624 mmHg 86%
    09:00 -4°C° 0.4 mm 3 mps 625 mmHg 87%
    10:00 -2°C° 0.4 mm 3 mps 625 mmHg 87%
    11:00 -2°C° 0.7 mm 2 mps 625 mmHg 87%
    12:00 -2°C° 0.7 mm 2 mps 624 mmHg 87%
    13:00 -2°C° 0.7 mm 2 mps 624 mmHg 87%
    14:00 -2°C° 0.6 mm 2 mps 624 mmHg 88%
    15:00 -1°C° 0.6 mm 1 mps 623 mmHg 90%
    16:00 -1°C° 0.6 mm 1 mps 623 mmHg 92%
    17:00 -4°C° 0.3 mm 2 mps 622 mmHg 90%
    18:00 -4°C° 0.3 mm 2 mps 622 mmHg 89%
    19:00 -6°C° 0.3 mm 3 mps 621 mmHg 87%
    20:00 -6°C° 0 mm 3 mps 621 mmHg 84%
    21:00 -7°C° 0 mm 4 mps 620 mmHg 81%
    22:00 -7°C° 0 mm 4 mps 620 mmHg 78%
    23:00 -7°C° 0.1 mm 4 mps 620 mmHg 80%

    Day after tomorrow, 15 December, Friday

    Time Temperature Precipitation Wind Pressure Humidity
    00:00 -7°C° 0.1 mm 4 mps 619 mmHg 83%
    01:00 -7°C° 0.1 mm 4 mps 619 mmHg 85%
    02:00 -6°C° 0.6 mm 3 mps 619 mmHg 87%
    03:00 -6°C° 0.6 mm 3 mps 619 mmHg 89%
    04:00 -6°C° 0.6 mm 3 mps 619 mmHg 92%
    05:00 -5°C° 1.1 mm 2 mps 619 mmHg 93%
    06:00 -5°C° 1.1 mm 2 mps 620 mmHg 94%
    07:00 -4°C° 1.1 mm 2 mps 620 mmHg 95%
    08:00 -4°C° 0.6 mm 2 mps 620 mmHg 95%
    09:00 -4°C° 0.6 mm 2 mps 620 mmHg 94%
    10:00 -3°C° 0.6 mm 1 mps 620 mmHg 94%
    11:00 -2°C° 0.3 mm 1 mps 620 mmHg 92%
    12:00 -2°C° 0.3 mm 1 mps 620 mmHg 90%
    13:00 -2°C° 0.3 mm 1 mps 619 mmHg 88%
    14:00 -2°C° 0.4 mm 1 mps 619 mmHg 90%
    15:00 -5°C° 0.4 mm 2 mps 619 mmHg 92%
    16:00 -5°C° 0.4 mm 2 mps 619 mmHg 94%
    17:00 -6°C° 0.3 mm 2 mps 619 mmHg 94%
    18:00 -6°C° 0.3 mm 2 mps 619 mmHg 93%
    19:00 -7°C° 0.3 mm 2 mps 619 mmHg 93%
    20:00 -8°C° 0.1 mm 2 mps 619 mmHg 91%
    21:00 -8°C° 0.1 mm 2 mps 619 mmHg 89%
    22:00 -9°C° 0.1 mm 2 mps 619 mmHg 87%
    23:00 -9°C° 0 mm 2 mps 619 mmHg 85%

    16 December, Saturday

    Time Temperature Precipitation Wind Pressure Humidity
    00:00 -9°C° 0 mm 2 mps 619 mmHg 83%
    01:00 -8°C° 0 mm 1 mps 619 mmHg 81%
    02:00 -9°C° 0.2 mm 1 mps 619 mmHg 82%
    03:00 -10°C° 0.2 mm 2 mps 620 mmHg 84%
    04:00 -10°C° 0.2 mm 2 mps 620 mmHg 85%
    05:00 -9°C° 0.4 mm 2 mps 621 mmHg 88%
    06:00 -9°C° 0.4 mm 2 mps 621 mmHg 90%
    07:00 -8°C° 0.4 mm 2 mps 622 mmHg 93%
    08:00 -8°C° 0.4 mm 2 mps 623 mmHg 93%
    09:00 -7°C° 0.4 mm 2 mps 623 mmHg 92%
    10:00 -7°C° 0.4 mm 2 mps 624 mmHg 92%
    11:00 -7°C° 0.3 mm 2 mps 624 mmHg 89%
    12:00 -6°C° 0.3 mm 2 mps 625 mmHg 87%
    13:00 -6°C° 0.3 mm 2 mps 625 mmHg 85%
    14:00 -6°C° 0.3 mm 2 mps 625 mmHg 88%
    15:00 -7°C° 0.3 mm 2 mps 625 mmHg 90%
    16:00 -7°C° 0.3 mm 2 mps 626 mmHg 93%
    17:00 -8°C° 0.2 mm 2 mps 626 mmHg 93%
    18:00 -9°C° 0.2 mm 2 mps 627 mmHg 94%
    19:00 -9°C° 0.2 mm 2 mps 627 mmHg 95%
    20:00 -10°C° 0.1 mm 2 mps 627 mmHg 95%
    21:00 -10°C° 0.1 mm 2 mps 628 mmHg 95%
    22:00 -12°C° 0.1 mm 2 mps 628 mmHg 95%
    23:00 -12°C° 0.1 mm 2 mps 628 mmHg 95%

    17 December, Sunday

    Time Temperature Precipitation Wind Pressure Humidity
    00:00 -13°C° 0.1 mm 2 mps 628 mmHg 95%
    01:00 -12°C° 0.1 mm 1 mps 628 mmHg 94%
    02:00 -12°C° 0 mm 1 mps 629 mmHg 94%
    03:00 -15°C° 0 mm 2 mps 629 mmHg 93%
    04:00 -15°C° 0 mm 2 mps 629 mmHg 92%
    05:00 -15°C° 0.1 mm 2 mps 629 mmHg 91%
    06:00 -14°C° 0.1 mm 2 mps 630 mmHg 91%
    07:00 -14°C° 0.1 mm 2 mps 631 mmHg 90%
    08:00 -13°C° 0.1 mm 2 mps 631 mmHg 89%
    09:00 -12°C° 0.1 mm 2 mps 632 mmHg 89%
    10:00 -10°C° 0.1 mm 2 mps 633 mmHg 88%
    11:00 -9°C° 0.1 mm 2 mps 633 mmHg 87%
    12:00 -8°C° 0.1 mm 2 mps 633 mmHg 86%
    13:00 -8°C° 0.1 mm 2 mps 634 mmHg 85%
    14:00 -8°C° 0.1 mm 2 mps 634 mmHg 88%
    15:00 -9°C° 0.1 mm 2 mps 634 mmHg 90%
    16:00 -10°C° 0.1 mm 2 mps 634 mmHg 92%
    17:00 -10°C° 0.1 mm 1 mps 634 mmHg 93%
    18:00 -11°C° 0.1 mm 1 mps 634 mmHg 93%
    19:00 -12°C° 0.1 mm 1 mps 634 mmHg 94%
    20:00 -12°C° 0 mm 1 mps 635 mmHg 93%
    21:00 -13°C° 0 mm 1 mps 635 mmHg 93%
    22:00 -13°C° 0 mm 1 mps 635 mmHg 92%
    23:00 -13°C° 0 mm 1 mps 635 mmHg 91%

    18 December, Monday

    Time Temperature Precipitation Wind Pressure Humidity
    00:00 -16°C° 0 mm 2 mps 635 mmHg 90%
    01:00 -16°C° 0 mm 2 mps 635 mmHg 89%
    02:00 -16°C° 0 mm 2 mps 635 mmHg 88%
    03:00 -16°C° 0 mm 2 mps 635 mmHg 88%
    04:00 -16°C° 0 mm 2 mps 634 mmHg 87%
    05:00 -15°C° 0 mm 2 mps 635 mmHg 86%
    06:00 -15°C° 0 mm 2 mps 635 mmHg 85%
    07:00 -14°C° 0 mm 2 mps 635 mmHg 84%
    08:00 -12°C° 0.1 mm 2 mps 635 mmHg 84%
    09:00 -10°C° 0.1 mm 2 mps 636 mmHg 84%
    10:00 -8°C° 0.1 mm 2 mps 636 mmHg 85%
    11:00 -7°C° 0.1 mm 2 mps 635 mmHg 84%
    12:00 -6°C° 0.1 mm 2 mps 635 mmHg 84%
    13:00 -3°C° 0.1 mm 1 mps 635 mmHg 84%
    14:00 -3°C° 0.3 mm 1 mps 634 mmHg 87%
    15:00 -3°C° 0.3 mm 1 mps 634 mmHg 89%
    16:00 -3°C° 0.3 mm 1 mps 633 mmHg 92%
    17:00 -3°C° 0.7 mm 1 mps 633 mmHg 92%
    18:00 -5°C° 0.7 mm 2 mps 633 mmHg 93%
    19:00 -6°C° 0.7 mm 2 mps 633 mmHg 93%
    20:00 -6°C° 0.5 mm 2 mps 633 mmHg 93%
    21:00 -6°C° 0.5 mm 2 mps 633 mmHg 93%
    22:00 -6°C° 0.5 mm 2 mps 634 mmHg 93%
    23:00 -6°C° 0.3 mm 2 mps 634 mmHg 93%
    Show more